Location: Hazelwood
(35.4687°N, 83.0040°W)
Time: 13:37:00
(UTC+00:00)

ISS - Visible Passes

Search period start: 01 December 2022 00:00
Search period end: 11 December 2022 00:00
Orbit: 414 x 421 km, 51.6° (Epoch: 01 December)

Date Brightness Start Highest point End Pass type
(mag) Time Alt. Az. Time Alt. Az. Time Alt. Az.
02 Dec -1.4 23:54:05 10° NNW 23:54:49 14° N 23:54:49 14° N visible
03 Dec -1.7 23:06:23 10° N 23:08:04 13° NNE 23:08:54 12° NE visible
04 Dec -2.9 23:53:36 10° NW 23:56:03 38° N 23:56:03 38° N visible
05 Dec -2.7 23:05:23 10° NNW 23:08:18 27° NE 23:10:28 15° E visible
06 Dec -0.9 00:42:09 10° WNW 00:43:27 18° W 00:43:27 18° W visible
06 Dec -2.9 23:53:17 10° WNW 23:56:31 49° SW 23:58:13 24° SSE visible
07 Dec -3.9 23:04:35 10° NW 23:07:56 82° NE 23:11:15 10° SE visible
08 Dec -0.6 23:53:37 10° W 23:55:37 15° SW 23:57:37 10° SSW visible
09 Dec -1.4 23:04:03 10° WNW 23:06:58 28° SW 23:09:52 10° SSE visible
